Regional Weather Roundup
Issued by NWS Goodland, KS

Home | Current Version | Previous Version | Graphics & Text | Print | Product List | Glossary On
Versions: 1 2 3 4 5 6 7 8 9 10 11 12 13 14 15 16 17 18 19 20 21 22 23 24 25 26 27 28 29 30 31 32 33 34 35 36 37 38 39 40 41 42 43 44 45 46 47 48 49 50
000
ASUS43 KGLD 221559
RWRGLD

GOODLAND FORECAST AREA HOURLY WEATHER ROUNDUP
NATIONAL WEATHER SERVICE GOODLAND KS
1000 AM MDT MON SEP 22 2014

...OFFICIAL OBSERVATIONS...

CITY           SKY/WX    TMP DP  RH WIND       PRES   REMARKS
GOODLAND KS    PTSUNNY   68  43  40 S25G33    30.27S
HILL CITY KS   SUNNY     69  45  41 S14G22    30.30F
IMPERIAL NEB   CLOUDY    65  42  43 S16       30.23F
MCCOOK NEB     MOSUNNY   70  44  39 S10G20    30.27F
AKRON CO       CLOUDY    58  52  80 S20       30.22R
BURLINGTON CO  PTSUNNY   69  45  41 S26G37    30.25F
LIMON CO       CLOUDY    61  53  75 S15       30.28R
$$

...UNOFFICIAL OBSERVATIONS...

CITY           SKY/WX    TMP DP  RH WIND       PRES   REMARKS
COLBY KS       SUNNY     70  45  40 SE23      30.29S
GOVE KS          N/A     67  32  27 MISG        N/A
NORTON KS      SUNNY     68  43  40 SE15      30.29S
SHARON SPRINGS   N/A     68  46  44 S20G29      N/A
WAKEENEY KS      N/A     67  41  38 MISG        N/A
TRENTON NEB      N/A     69  32  25 S14         N/A
KIT CARSON CO    N/A     66  49  54 N24G33      N/A
YUMA CO          N/A     62  49  63 S14G22      N/A
$$


USA.gov is the U.S. government's official web portal to all federal, state and local government web resources and services.